Location: Aressy
(43.2833°N, 0.3167°W)
Time: 01:24:04
(UTC+00:00)

X-37B - Pass Details

Date: 28 January 2021
Orbit: 383 x 391 km, 45.0° (Epoch: 27 February)

Event Time Altitude Azimuth Distance (km) Brightness Sun altitude
Rises 19:19:50 0° 285° (WNW) 2,276 5.7 -24.0°
Reaches altitude 10° 19:21:58 10° 278° (W) 1,420 4.5 -24.4°
Enters shadow 19:23:54 29° 255° (WSW) 741 2.6 -24.7°
